National Weather Service United States Department of Commerce

Latest Hourly Weather Roundup

TOPSWRTT 000
TTAA00 KICT 241203

Wichita AWIPS Roundup
National Weather Service Wichita KS
700 AM CDT FRI MAR 24 2017

....Central Kansas....
  
CITY           SKY/WX    TMP DP  RH WIND       PRES   REMARKS
RUSSELL        CLOUDY    62  43  49 S15       29.63R                  
6HR MIN TEMP:  61; 6HR MAX TEMP:  69;                                

SALINA         CLOUDY    67  42  40 S14       29.67R                  
6HR MIN TEMP:  67; 6HR MAX TEMP:  73; 6HR PCP: TRACE;                

GREAT BEND     CLEAR     60  43  53 S16       29.63R                  
6HR MIN TEMP:  60; 6HR MAX TEMP:  68;                                

ELLSWORTH        N/A     64  43  45 S21G29    29.63S                  
MCPHERSON      CLEAR     64  43  45 S21G26    29.67S                  
HAYS             N/A     57  45  64 E8        29.63R                  
6HR MIN TEMP:  55; 6HR MAX TEMP:  67;                                


....South Central Kansas....
  
CITY           SKY/WX    TMP DP  RH WIND       PRES   REMARKS
HUTCHINSON     MOCLDY    66  45  46 S26G38    29.66R                  
6HR MIN TEMP:  66; 6HR MAX TEMP:  70;                                

NEWTON         CLOUDY    65  44  46 S25G33    29.70R                  
6HR MIN TEMP:  65; 6HR MAX TEMP:  70;                                

KINGMAN        CLEAR     64  46  52 SE23G33   29.67R                  
WICHITA (ICT)  MOCLDY    65  45  48 S20G29    29.70R                  
6HR MIN TEMP:  65; 6HR MAX TEMP:  70;                                

JABARA ARPT    CLEAR     65  44  46 S21G28    29.71R                  
6HR MIN TEMP:  65; 6HR MAX TEMP:  71;                                

MCCONNELL AFB  CLEAR     66  44  44 S23G32    29.71R                  
6HR MIN TEMP:  66; 6HR MAX TEMP:  70;                                

BENTON         FAIR      65  43  44 S20G31    29.71R                  
6HR MIN TEMP:  65; 6HR MAX TEMP:  70;                                

EL DORADO      CLOUDY    68  45  42 S21G30    29.72S                  
AUGUSTA        FAIR      64  45  48 S22G32    29.72R                  
HARPER         NOT AVBL                                               
WELLINGTON     PTCLDY    66  48  52 S21G31    29.71R                  
WINFIELD       CLOUDY    66  47  50 S18       29.74R                  
6HR MIN TEMP:  66; 6HR MAX TEMP:  72;                                

 
....Southeast Kansas....
  
CITY           SKY/WX    TMP DP  RH WIND       PRES   REMARKS
EUREKA         MOCLDY    68  46  45 S21G26    29.75S                  
IOLA           FAIR      62  43  50 S20G28    29.81S                  
CHANUTE        CLOUDY    64  44  48 S16       29.80S                  
6HR MIN TEMP:  62; 6HR MAX TEMP:  70; 6HR PCP: TRACE;                

PARSONS        CLOUDY    68  40  35 S16G29    29.82R                  
6HR MIN TEMP:  67; 6HR MAX TEMP:  71; 6HR PCP: TRACE;                

COFFEYVILLE    CLOUDY    68  43  40 S25G36    29.82R                  
6HR MIN TEMP:  68; 6HR MAX TEMP:  72;                                

INDEPENDENCE   CLOUDY    64  41  42 S17       29.80S                  
FORT SCOTT     MOCLDY    64  41  42 S9        29.82R                  
PITTSBURG      PTCLDY    64  41  43 S9        29.83R                  

....Western Kansas....
  
CITY           SKY/WX    TMP DP  RH WIND       PRES   REMARKS
GOODLAND       LGT RAIN  49  49 100 NE33G47   29.62R VSB 3/4          
6HR MIN TEMP:  49; 6HR MAX TEMP:  56; 6HR PCP:  0.03;                

HILL CITY      CLOUDY    55  54  96 NE18G26   29.65S                  
6HR MIN TEMP:  54; 6HR MAX TEMP:  59; 6HR PCP:  0.04;                

LIBERAL        CLEAR     46  28  49 S15       29.53S                  
6HR MIN TEMP:  45; 6HR MAX TEMP:  59;                                

GARDEN CITY    CLEAR     43  36  76 SE9       29.59R WCI  38          
6HR MIN TEMP:  43; 6HR MAX TEMP:  60;                                

DODGE CITY     CLEAR     46  39  76 S9        29.62R                  
6HR MIN TEMP:  46; 6HR MAX TEMP:  61; 6HR PCP:  0.03;                

PRATT            N/A    N/A N/A N/A MISG        N/A                   
MEDICINE LODGE   N/A     61  37  41 S14       29.65R                  
6HR MIN TEMP:  61; 6HR MAX TEMP:  69;                                


....Northeast Kansas....
  
CITY           SKY/WX    TMP DP  RH WIND       PRES   REMARKS
CONCORDIA      CLOUDY    66  44  45 S9        29.69R                  
6HR MIN TEMP:  65; 6HR MAX TEMP:  72; 6HR PCP: TRACE;                

TOPEKA         CLOUDY    68  46  45 S13G24    29.73R                  
6HR MIN TEMP:  67; 6HR MAX TEMP:  70;                                

MANHATTAN      CLOUDY    68  42  38 S10G21    29.70R                  
6HR MIN TEMP:  67; 6HR MAX TEMP:  72;                                

LAWRENCE       CLOUDY    68  45  43 S17G26    29.75S                  
6HR MIN TEMP:  67; 6HR MAX TEMP:  72;                                

OLATHE         PTCLDY    66  45  46 S17G33    29.79R                  
6HR MIN TEMP:  65; 6HR MAX TEMP:  67;                                

EMPORIA        CLOUDY    67  45  45 S24G32    29.72S                  
6HR MIN TEMP:  63; 6HR MAX TEMP:  68;                                


....Oklahoma....
  
CITY           SKY/WX    TMP DP  RH WIND       PRES   REMARKS
GAGE           CLOUDY    52  37  56 S16       29.63S                  
6HR MIN TEMP:  52; 6HR MAX TEMP:  63; 6HR PCP:  0.04;                

PONCA CITY     CLOUDY    67  48  50 S18G26    29.74S                  
6HR MIN TEMP:  67; 6HR MAX TEMP:  74;                                

BARTLESVILLE   CLOUDY    67  45  45 S12G25    29.81R                  
6HR MIN TEMP:  65; 6HR MAX TEMP:  73; 6HR PCP: TRACE;                

TULSA          CLOUDY    67  50  54 S22G33    29.82R                  
6HR MIN TEMP:  67; 6HR MAX TEMP:  73;                                

OKLAHOMA CITY  MOCLDY    64  54  69 S21G28    29.75S                  
6HR MIN TEMP:  64; 6HR MAX TEMP:  71;                                


Note: "fair" indicates few or no clouds below 12,000 feet with no
significant weather and/or obstructions to visibility.